DateTimeUTC,F1_A11,F1_S11,BsB_S11,BsG_S11,BsR_S11,BbsB_S11,BbsG_S11,BbsR_S11,BaB_A11,BaG_A11,BaR_A11,Tu_S11,T_S11,Uu_S11,U_S11,P_S11,T1_A11
2021-08-26T18:00:00Z,00000200,20000000,,,,,,,0000.15,-000.25,-000.29,19.9,26.7,06.2,04.1,0672.4,31.0
2021-08-26T18:01:00Z,00000200,20000000,,,,,,,0000.32,0000.32,0000.32,19.9,26.7,06.2,04.1,0672.4,31.0
2021-08-26T18:02:00Z,00000200,20000000,,,,,,,0000.22,0000.22,0000.24,19.9,26.7,06.2,04.1,0672.4,31.0
2021-08-26T18:03:00Z,00000200,60000000,,,,,,,0000.48,0000.68,0000.52,19.9,26.7,06.2,04.1,0672.4,31.0
2021-08-26T18:04:00Z,00000200,40000000,0001.70,0001.34,0001.20,0000.73,0000.24,0000.35,0000.66,0000.16,0000.30,20.0,26.5,06.7,04.5,0673.3,31.0
2021-08-26T18:05:00Z,00000200,00000000,0001.64,0001.16,0000.85,0000.36,0000.43,-000.08,0000.71,0000.77,0000.43,20.0,26.5,07.0,04.7,0673.4,31.0
2021-08-26T18:06:00Z,00000200,00000000,0001.56,0001.82,0000.99,0000.59,0000.28,0000.07,0000.26,0000.62,0000.62,20.0,26.5,07.0,04.7,0673.4,31.0
2021-08-26T18:07:00Z,00000200,00000000,0002.19,0001.61,0001.07,0000.17,0000.16,0000.17,0000.65,0000.43,0000.09,20.0,26.5,07.1,04.8,0673.4,31.0
2021-08-26T18:08:00Z,00000200,00000000,0001.46,0001.78,0001.02,-000.30,0000.22,0000.40,0000.25,0000.55,0000.42,20.0,26.4,07.1,04.8,0673.4,31.0
2021-08-26T18:09:00Z,00000200,00000000,0001.57,0001.65,0000.83,-000.23,0000.32,0000.21,0000.55,0000.10,0000.27,20.0,26.4,07.1,04.8,0673.4,31.0
2021-08-26T18:10:00Z,00000200,00000000,0001.78,0001.62,0001.01,0000.31,0000.35,0000.38,0000.31,0000.35,0000.27,20.0,26.4,07.1,04.8,0673.4,31.0
2021-08-26T18:11:00Z,00000200,00000000,0001.56,0001.49,0000.68,0000.24,0000.38,0000.17,0000.10,0000.28,0000.43,20.0,26.4,07.1,04.8,0673.4,31.0
2021-08-26T18:12:00Z,00000200,00000000,0001.45,0001.58,0000.57,0000.52,0000.37,0000.24,0000.58,0000.21,0000.08,20.0,26.4,07.3,04.9,0673.4,31.0
2021-08-26T18:13:00Z,00000200,00000000,0001.55,0001.83,0000.78,0000.13,0000.76,-000.05,0000.35,0000.68,0000.42,20.0,26.4,07.3,04.9,0673.4,31.0
2021-08-26T18:14:00Z,00000200,00000000,0002.34,0001.74,0001.42,0000.41,0000.31,0000.14,0000.38,0000.20,0000.67,20.0,26.4,07.3,05.0,0673.4,31.0
2021-08-26T18:15:00Z,00000200,00000000,0002.43,0001.71,0001.09,0000.74,0000.27,0000.29,0001.00,0000.66,0000.04,20.0,26.4,07.3,05.0,0673.5,31.0
2021-08-26T18:16:00Z,00000200,00000000,0002.37,0001.97,0001.82,0000.20,0000.51,0000.59,0000.33,0000.47,0000.68,20.0,26.4,07.3,05.0,0673.5,31.0
2021-08-26T18:17:00Z,00000200,00000000,0002.67,0002.50,0001.44,-000.14,0000.61,0000.54,0000.22,0000.53,0000.30,20.0,26.4,07.4,05.0,0673.5,31.0
2021-08-26T18:18:00Z,00000200,00000000,0002.55,0002.73,0001.80,-000.25,0000.60,0000.04,0000.80,0000.62,0000.58,20.0,26.4,07.4,05.0,0673.5,31.0
2021-08-26T18:19:00Z,00000200,00000000,0003.41,0002.37,0001.55,0000.40,0000.39,0000.61,0000.69,0000.39,0000.31,20.0,26.4,07.5,05.1,0673.5,31.0
2021-08-26T18:20:00Z,00000200,00000000,0002.50,0002.53,0001.71,0000.35,0000.24,0000.42,0000.35,0000.47,0000.20,20.0,26.4,07.3,05.0,0673.5,31.0
2021-08-26T18:21:00Z,00000200,00000000,0002.44,0002.57,0001.68,0000.53,0000.56,0000.35,0000.66,0000.78,0000.70,20.0,26.4,07.4,05.0,0673.5,31.0
2021-08-26T18:22:00Z,00000200,00000000,0002.88,0001.93,0001.52,0000.40,0000.61,0000.29,0000.63,0000.17,0000.44,20.0,26.4,07.5,05.1,0673.5,31.0
2021-08-26T18:23:00Z,00000200,00000000,0002.21,0001.83,0001.45,0000.10,0000.28,0000.21,0000.64,0000.89,0000.69,20.0,26.4,07.5,05.1,0673.5,31.0
2021-08-26T18:24:00Z,00000200,00000000,0000.64,0000.85,0000.84,0000.05,0000.16,0000.13,0000.25,0000.21,0000.15,20.0,26.4,07.7,05.2,0673.5,31.0
2021-08-26T18:25:00Z,00000200,00000000,0000.90,0000.89,0000.38,0000.01,0000.18,0000.07,0000.67,0000.53,0000.50,20.0,26.4,07.7,05.2,0673.5,31.0
2021-08-26T18:26:00Z,00000200,00000000,0001.54,0001.05,0000.70,0000.07,0000.29,0000.16,-000.09,0000.28,0000.24,20.0,26.4,07.7,05.2,0673.5,31.0
2021-08-26T18:27:00Z,00000200,00000000,0000.84,0001.29,0000.81,-000.09,0000.18,0000.18,0000.44,0000.48,0000.46,20.0,26.4,07.7,05.2,0673.5,31.0
2021-08-26T18:28:00Z,00000200,00000000,0002.22,0001.66,0001.25,-000.09,0000.15,0000.25,0000.22,0000.10,-000.04,20.0,26.4,07.8,05.3,0673.5,31.0
2021-08-26T18:29:00Z,00000200,00000000,0001.93,0001.26,0001.32,-000.32,0000.24,0000.12,0000.42,0000.34,0000.50,20.0,26.4,07.8,05.3,0673.5,31.0
2021-08-26T18:30:00Z,00000200,00000000,0002.51,0001.68,0000.78,0000.76,0000.59,-000.31,0000.46,0000.11,0000.06,20.0,26.4,07.8,05.3,0673.5,31.0
2021-08-26T18:31:00Z,00000200,00000000,0001.84,0001.31,0000.79,0000.22,0000.32,-000.19,0000.31,0000.58,0000.28,20.0,26.4,07.8,05.3,0673.5,31.0
2021-08-26T18:32:00Z,00000200,00000000,0002.13,0001.43,0000.89,0000.83,0000.16,0000.51,0000.15,0000.06,0000.34,20.0,26.3,07.9,05.4,0673.5,31.0
2021-08-26T18:33:00Z,00000200,00000000,0002.82,0001.49,0001.04,-000.34,0000.20,0000.27,0000.66,0000.72,0000.43,20.0,26.4,07.9,05.4,0673.5,31.0
2021-08-26T18:34:00Z,00000200,00000000,0002.86,0002.12,0001.56,0000.15,0000.39,0000.12,0000.21,0000.13,0000.22,20.0,26.3,07.9,05.3,0673.5,31.0
2021-08-26T18:35:00Z,00000200,00000000,0002.35,0002.05,0001.39,0000.22,0000.40,0000.34,0000.60,0000.84,0000.74,20.0,26.4,07.9,05.3,0673.5,31.0
2021-08-26T18:36:00Z,00000200,00000000,0002.75,0002.00,0001.62,0000.66,0000.50,0000.25,0000.28,-000.06,-000.03,20.0,26.3,07.9,05.4,0673.5,31.0
2021-08-26T18:37:00Z,00000200,00000000,0002.76,0002.30,0001.61,-000.10,0000.25,0000.14,0000.32,0000.54,-000.03,20.0,26.3,07.8,05.3,0673.5,31.0
2021-08-26T18:38:00Z,00000200,00000000,0002.34,0002.51,0001.29,-000.10,0000.50,0000.03,0000.57,0000.14,0000.67,20.0,26.3,07.9,05.4,0673.5,31.0
2021-08-26T18:39:00Z,00000200,00000000,0002.53,0001.73,0001.32,0000.97,0000.41,0000.52,0000.52,0000.80,0000.64,19.9,26.3,08.0,05.5,0673.5,31.0
2021-08-26T18:40:00Z,00000200,00000000,0001.59,0001.22,0000.46,-000.09,0000.11,0000.06,0000.23,-000.11,0000.27,19.9,26.3,08.0,05.4,0673.5,31.0
2021-08-26T18:41:00Z,00000200,00000000,0001.68,0001.39,0000.95,0000.20,0000.14,-000.06,0000.50,0000.62,0000.36,19.9,26.3,08.1,05.5,0673.5,31.0
2021-08-26T18:42:00Z,00000200,00000000,0001.56,0000.64,0000.90,-000.26,0000.12,0000.09,0000.50,0000.60,0000.03,19.9,26.3,08.1,05.5,0673.5,31.0
2021-08-26T18:43:00Z,00000200,00000000,0002.68,0001.95,0001.17,0000.26,0000.24,0000.13,0000.41,0000.05,0000.36,19.9,26.3,08.1,05.5,0673.5,31.0
2021-08-26T18:44:00Z,00000200,00000000,0002.51,0002.43,0001.47,0000.27,0000.40,0000.03,0000.42,0000.69,0000.65,19.9,26.3,08.2,05.6,0673.5,31.0
2021-08-26T18:45:00Z,00000200,00000000,0002.49,0001.75,0001.71,0000.27,0000.48,0000.45,0000.73,0000.77,0000.94,19.9,26.3,08.2,05.6,0673.5,31.0
2021-08-26T18:46:00Z,00000200,00000000,0002.89,0001.99,0001.24,0000.08,0000.35,0000.19,0000.22,0000.32,0000.26,19.9,26.3,08.3,05.6,0673.5,31.0
2021-08-26T18:47:00Z,00000200,00000000,0003.61,0002.10,0001.61,0000.36,0000.47,0000.57,0000.60,0000.57,0000.22,19.9,26.3,08.2,05.6,0673.5,31.0
2021-08-26T18:48:00Z,00000200,00000000,0002.45,0002.29,0001.18,0001.02,0000.54,0000.42,0000.56,0000.42,0000.45,19.9,26.3,08.3,05.6,0673.5,31.0
2021-08-26T18:49:00Z,00000200,00000000,0002.24,0002.19,0001.43,0000.43,0000.44,0000.40,0000.66,0000.53,0000.69,19.9,26.3,08.2,05.6,0673.5,31.0
2021-08-26T18:50:00Z,00000200,00000000,0002.60,0001.65,0001.56,0000.42,0000.38,0000.39,0000.44,0000.60,0000.13,19.9,26.3,08.3,05.7,0673.5,31.0
2021-08-26T18:51:00Z,00000200,00000000,0002.06,0001.62,0001.39,0000.52,0000.24,0000.32,0000.12,0000.10,0000.24,19.9,26.3,08.4,05.7,0673.5,31.0
2021-08-26T18:52:00Z,00000200,00000000,0002.90,0001.66,0001.35,0000.04,0000.35,0000.32,0000.68,0000.56,0000.60,19.9,26.3,08.4,05.8,0673.5,31.0
2021-08-26T18:53:00Z,00000200,00000000,0002.92,0001.66,0001.08,0000.37,0000.54,0000.33,0000.62,0000.54,0000.09,19.9,26.3,08.4,05.7,0673.5,31.0
2021-08-26T18:54:00Z,00000200,00000000,0002.52,0001.91,0001.03,0000.18,0000.55,0000.10,0000.29,0000.68,0000.70,19.9,26.3,08.4,05.8,0673.5,31.0
2021-08-26T18:55:00Z,00000200,00000000,0002.19,0001.83,0001.50,0000.61,0000.20,0000.13,0000.78,0000.02,0000.21,19.9,26.3,08.4,05.8,0673.6,31.0
2021-08-26T18:56:00Z,00000200,00000000,0001.79,0001.45,0001.28,-000.09,0000.32,0000.17,0000.46,0000.89,0000.61,19.9,26.3,08.6,05.8,0673.5,31.0
2021-08-26T18:57:00Z,00000200,40000000,,,,,,,-000.78,-000.44,-000.43,20.0,26.3,08.6,05.9,0673.6,31.0
2021-08-26T18:58:00Z,00000200,60000000,,,,,,,-000.09,0000.21,0000.23,19.7,26.4,08.3,05.5,0672.6,31.0
2021-08-26T18:59:00Z,00000200,20000000,,,,,,,0000.65,-000.06,0000.06,19.7,26.5,08.3,05.5,0672.6,31.0
